TimeCDT,TemperatureF,Dew PointF,Humidity,Sea Level PressureIn,VisibilityMPH,Wind Direction,Wind SpeedMPH,Gust SpeedMPH,PrecipitationIn,Events,Conditions,WindDirDegrees,DateUTC
12:52 AM,61.0,59.0,93,30.04,-9999.0,Calm,Calm,-,N/A,,Unknown,0,2013-07-03 05:52:00
1:52 AM,61.0,57.9,90,30.04,-9999.0,Calm,Calm,-,N/A,,Unknown,0,2013-07-03 06:52:00
2:52 AM,60.1,57.0,90,30.04,-9999.0,Calm,Calm,-,N/A,,Unknown,0,2013-07-03 07:52:00
3:52 AM,61.0,57.9,90,30.03,-9999.0,Calm,Calm,-,N/A,,Unknown,0,2013-07-03 08:52:00
4:52 AM,59.0,57.0,93,30.04,-9999.0,Calm,Calm,-,N/A,,Unknown,0,2013-07-03 09:52:00
5:52 AM,57.9,55.9,93,30.05,-9999.0,Calm,Calm,-,N/A,,Unknown,0,2013-07-03 10:52:00
6:52 AM,59.0,57.0,93,30.06,-9999.0,Calm,Calm,-,N/A,,Unknown,0,2013-07-03 11:52:00
7:52 AM,64.0,60.1,87,30.07,-9999.0,Calm,Calm,-,N/A,,Unknown,0,2013-07-03 12:52:00
8:52 AM,68.0,61.0,78,30.08,-9999.0,South,3.5,-,N/A,,Unknown,180,2013-07-03 13:52:00
9:52 AM,71.1,57.9,63,30.07,-9999.0,SSE,3.5,-,N/A,,Unknown,150,2013-07-03 14:52:00
10:52 AM,73.9,59.0,59,30.06,-9999.0,Variable,3.5,-,N/A,,Unknown,0,2013-07-03 15:52:00
11:52 AM,77.0,62.1,60,30.05,-9999.0,Variable,3.5,-,N/A,,Unknown,0,2013-07-03 16:52:00
12:52 PM,80.1,62.1,54,30.04,-9999.0,Variable,4.6,-,N/A,,Unknown,0,2013-07-03 17:52:00
1:52 PM,82.9,57.9,42,30.01,-9999.0,Variable,3.5,-,N/A,,Unknown,0,2013-07-03 18:52:00
2:52 PM,84.0,54.0,35,30.00,-9999.0,Variable,5.8,-,N/A,,Unknown,0,2013-07-03 19:52:00
3:52 PM,81.0,55.9,42,30.00,-9999.0,Calm,Calm,-,N/A,,Unknown,0,2013-07-03 20:52:00
4:52 PM,66.9,62.1,84,30.02,-9999.0,Calm,Calm,-,0.18,,Unknown,0,2013-07-03 21:52:00
5:52 PM,73.9,68.0,82,29.99,-9999.0,Calm,Calm,-,N/A,,Unknown,0,2013-07-03 22:52:00
6:52 PM,75.9,63.0,64,29.99,-9999.0,SSW,4.6,-,N/A,,Unknown,200,2013-07-03 23:52:00
7:52 PM,75.9,59.0,56,30.00,-9999.0,SSW,6.9,18.4,N/A,,Unknown,210,2013-07-04 00:52:00
8:52 PM,71.1,59.0,66,30.01,-9999.0,Variable,3.5,-,N/A,,Unknown,0,2013-07-04 01:52:00
9:52 PM,69.1,55.9,63,30.02,-9999.0,Calm,Calm,-,N/A,,Unknown,0,2013-07-04 02:52:00
10:52 PM,63.0,59.0,87,30.02,-9999.0,Calm,Calm,-,N/A,,Unknown,0,2013-07-04 03:52:00
11:52 PM,61.0,57.9,90,30.02,-9999.0,Calm,Calm,-,N/A,,Unknown,0,2013-07-04 04:52:00